Weather in Voznyesyenje

Russia / Saint-Petersburg and Leningrad Oblast     61°00′48″N   35°28′52″E
temp.,
°C
wind,
m/s
gust,
m/s
humid.,
%
clouds,
%
prec.,
mm/h
press.,
hPa
HPBL,
m
21 june, mon
mon2100:00+19sw33765 0.0 101626
03:00+17wsw34845 0.0 101663
06:00+18wsw34845 0.0 101776
09:00+22wsw24620 0.0 1017347
12:00+24ssw14525 0.0 10171009
15:00+26sw24450 0.0 10161231
18:00+28sw35396 0.0 10151239
21:00+23w115965 0.0 101611
22 june, tue
tue2200:00+19w348042 0.0 101747
03:00+17sw128517 0.1 101811
06:00+18s23857 0.2 101874
09:00+22s13655 0.2 1018250
12:00+24se23577 0.0 1018803
15:00+22ese33615 0.0 1017638
18:00+20ese227554 0.9 1016165
21:00+21s33625 1.0 101521
23 june, wed
wed2300:00+20ssw336736 0.0 101627
03:00+19sw348122 0.3 101672
06:00+20sw3678100 0.0 1016113
09:00+24sw476295 0.0 1016321
12:00+27wsw485222 0.1 10161060
15:00+28wsw474569 0.1 10151339
18:00+28wnw464950 0.1 1015587
21:00+20sse227848 0.2 101522
24 june, thu
thu2400:00+16se2297100 0.4 101638
03:00+18ssw33877 0.4 101533
06:00+19wsw35800 0.0 1015113
09:00+24sw36590 0.0 1014300
12:00+27wsw58473 0.0 10131064
15:00+28wsw5948100 0.1 10121119
18:00+23wnw387099 1.1 1013575
21:00+16e239763 1.1 101569
25 june, fri
fri2500:00+15ne119997 0.0 101630
03:00+15n359898 0.1 1016121
06:00+14nne368740 0.0 1017185
09:00+16nne357124 0.0 1018273
12:00+18ne34621 0.0 1018393
15:00+19ene33590 0.0 1018514
18:00+19ne34580 0.0 1018389
21:00+17nnw35600 0.0 101685